星链-35630(STARLINK-35630)

导读

STARLINK-35630是美国SpaceX公司星链(Starlink)低轨卫星互联网星座的一员,于2025年10月22日由美国发射升空。星链计划旨在构建全球覆盖的巨型低轨卫星互联网星座,为全球用户提供高速、低延迟的宽带互联网服务。该卫星属于星链星座的扩建部分,运行于近地轨道,设计寿命超过5年,将助力拓展星链全球网络覆盖范围,提升星座整体服务能力。

Basic Information
目录编号:
66131
目录名称:
STARLINK-35630
国际标识:
2025-237T
轨道中心:
EARTH
卫星名称:
星链-35630
卫星全名:
星链-35630(STARLINK-35630)
卫星状态:
在轨 (已飞行317 天)
发射日期:
2025-10-22 UTC
国别 :
美国 (US)
星等 :
--
Orbit Information
数据来源 国际轨道数据
星历时间: 2026-09-03T19:51:24+0800
18小时前
查看轨道信息
半长轴: 6840.854km
偏心率: 0.0001152
轨道倾角: 53.158°
近地点辐角 89.049°
升交点赤经 290.873°
平近点角 271.065°
近地点: 461.928km
远地点: 463.506km
周期: 93.848分钟
每日圈数: 15.343956
Detailed Information
固有亮度:
5
最大亮度:
2.5
卫星平台:
Starlink V1.0
覆盖范围:
全球
运营商:
太空探索技术公司
运营商所在国:
美国
制造商(研发单位):
太空探索技术公司
制造商所在国:
美国
使用方式:
暂无
Satellite Introduction
Starlink 计划是 SpaceX 推出的全球卫星互联网项目,通过发射低轨道卫星,为全球尤其是偏远地区提供高速、低延迟的互联网服务。自 2019 年起,Starlink 已部署数千颗卫星,旨在缩小全球数字鸿沟,推动互联网普及。该项目还为军事、航空等行业提供通信支持,带来广泛经济效益。
2D Orbit Map
3D Orbit Map
Orbit Altitude Analysis Chart
Orbit Inclination Analysis Chart
Orbit Comprehensive Analysis Chart
View Comprehensive Chart
Conjunction Data List
Event ID Objects TCA Miss Dist (km) Collision Risk Probability Collision Risk Index (CRI) Action
CDM_260904-114806-467706-613121
2026-09-04T
11:48:29+0000
0.285 km
中距离
4.130895E-4 高风险 0.87
CDM_260903-192306-467706-613121
2026-09-03T
19:23:41+0000
1.012 km
极远距离
1.646914E-5 中风险 0.59
CDM_260903-205706-467706-613121
2026-09-03T
20:57:28+0000
1.147 km
极远距离
1.066563E-5 中风险 0.56
CDM_260904-101406-467706-613121
2026-09-04T
10:14:41+0000
2.061 km
极远距离
1.774404E-6 低风险 0.4
CDM_260904-132206-467706-613121
2026-09-04T
13:22:16+0000
2.670 km
极远距离
1.080522E-6 低风险 0.36
CDM_260903-174906-467706-613121
2026-09-03T
17:49:53+0000
2.833 km
极远距离
9.945147E-7 极低风险 0.35